• Join FlightAware (Why Join?)
  • Login
  • US Flag 
05:53AM EDT


 

Airport Tracker/Info


-or-


 

Live Flight TrackerFlight Track Log ✈ DAL268 ✈ 27-Apr-2013 ✈ KATL - KJFK

Flight Track Log - Related Links

Times and Time Zones

All times are in EDT time to prevent confusion due to time zone crossing. See the DAL268 flight status page for this flight to view local times or setup timezone preferences in your user account.

Time Position Orientation Groundspeed Altitude Reporting Facility
EDT Latitude Longitude Course Direction KTS MPH feet Rate Location/Type
06:25PM 33.6333 -84.3833 64° Northeast 179 206 2,300  Level Atlanta TRACON
06:26PM 33.6333 -84.3000 90° East 244 281 4,000 2,100 Climbing Atlanta TRACON
06:27PM 33.8632 -84.1313 101° East  Level Estimated
06:27PM 33.6333 -84.2167 90° East 276 318 6,600  Level Atlanta TRACON
06:28PM 33.8063 -84.0157 121° Southeast  Level FlightAware Approximate
06:28PM 33.6356 -84.1061 89° East 301 346 8,800  Level Atlanta Center
06:29PM 33.7493 -83.9002 121° Southeast  Level FlightAware Approximate
06:29PM 33.6419 -83.9989 86° East 309 356 11,300  Level Atlanta Center
06:30PM 33.8261 -83.8028 64° Northeast  Level Estimated
06:30PM 33.6500 -83.8817 85° East 335 386 12,700  Level Atlanta Center
06:31PM 33.6583 -83.7517 86° East 366 421 14,700 2,100 Climbing Atlanta Center
06:32PM 33.6725 -83.6169 83° East 397 457 16,900 1,920 Climbing Atlanta Center
06:33PM 33.7242 -83.4969 63° Northeast 404 465 18,600 1,380 Climbing Atlanta Center
06:34PM 33.7778 -83.3617 64° Northeast 428 493 19,700 1,140 Climbing Atlanta Center
06:35PM 33.8292 -83.2236 66° East 447 514 20,900 1,260 Climbing Atlanta Center
06:36PM 33.8906 -83.0803 63° Northeast 467 537 22,300 1,260 Climbing Atlanta Center
06:37PM 33.9439 -82.9469 64° Northeast 475 547 23,500 1,380 Climbing Atlanta Center
06:38PM 34.0031 -82.7958 65° Northeast 493 567 25,100 1,680 Climbing Atlanta Center
06:39PM 34.0597 -82.6497 65° Northeast 488 562 26,900 1,680 Climbing Atlanta Center
06:40PM 34.1186 -82.5056 64° Northeast 483 556 28,500 1,500 Climbing Atlanta Center
06:41PM 34.1792 -82.3464 65° Northeast 478 550 30,000 720 Climbing Atlanta Center
06:42PM 34.2333 -82.2022 66° East 466 536 30,000  Level Atlanta Center
06:43PM 34.2981 -82.0625 61° Northeast 466 536 30,000  Level Atlanta Center
06:44PM 34.3667 -81.9275 58° Northeast 472 543 30,000 180 Level Atlanta Center
06:45PM 34.4311 -81.7947 59° Northeast 472 543 30,400 540 Climbing Atlanta Center
06:46PM 34.5017 -81.6594 58° Northeast 467 537 31,100 720 Climbing Atlanta Center
06:47PM 34.5700 -81.5239 58° Northeast 467 537 31,900 720 Climbing Atlanta Center
06:48PM 34.6317 -81.3856 62° Northeast 467 537 32,600 540 Climbing Atlanta Center
06:49PM 34.6936 -81.2650 58° Northeast 467 537 33,000 180 Climbing Atlanta Center
06:50PM 34.7614 -81.1286 59° Northeast 467 537 33,000  Level Atlanta Center
06:51PM 34.8272 -80.9922 60° Northeast 467 537 33,000  Level Atlanta Center
06:52PM 34.8944 -80.8506 60° Northeast 479 551 33,000  Level Atlanta Center
06:53PM 34.9639 -80.7111 59° Northeast 479 551 33,000  Level Atlanta Center
06:54PM 35.0328 -80.5686 59° Northeast 483 556 33,000  Level Atlanta Center
06:55PM 35.0978 -80.4314 60° Northeast 476 548 33,000  Level Atlanta Center
06:57PM 35.2483 -80.1142 60° Northeast 493 567 33,000  Level Washington Center
06:58PM 35.3161 -79.9778 59° Northeast 475 547 33,000  Level Washington Center
06:59PM 35.3819 -79.8336 61° Northeast 475 547 33,000  Level Washington Center
07:00PM 35.4494 -79.6919 60° Northeast 475 547 33,000  Level Washington Center
07:01PM 35.5147 -79.5525 60° Northeast 475 547 33,000  Level Washington Center
07:02PM 35.5772 -79.4228 59° Northeast 475 547 33,000  Level Washington Center
07:03PM 35.6489 -79.2728 60° Northeast 469 540 33,000  Level Washington Center
07:04PM 35.7156 -79.1300 60° Northeast 469 540 33,000  Level Washington Center
07:05PM 35.7803 -78.9869 61° Northeast 469 540 33,000  Level Washington Center
07:06PM 35.8469 -78.8464 60° Northeast 469 540 33,000  Level Washington Center
07:07PM 35.8867 -78.6864 73° East 475 547 33,000  Level Washington Center
07:08PM 35.9033 -78.5178 83° East 475 547 33,000  Level Washington Center
07:09PM 35.9178 -78.3492 84° East 488 562 33,000  Level Washington Center
07:10PM 35.9361 -78.1778 82° East 488 562 33,000  Level Washington Center
07:11PM 35.9497 -78.0319 83° East 493 567 33,000  Level Washington Center
07:12PM 35.9656 -77.8581 84° East 499 574 33,000  Level Washington Center
07:13PM 35.9917 -77.6919 79° East 499 574 33,000  Level Washington Center
07:14PM 36.0689 -77.5603 54° Northeast 477 549 33,000  Level Washington Center
07:15PM 36.1483 -77.4311 53° Northeast 467 537 33,000  Level Washington Center
07:16PM 36.2336 -77.2942 52° Northeast 461 531 33,000  Level Washington Center
07:17PM 36.3250 -77.1775 46° Northeast 461 531 33,000  Level Washington Center
07:18PM 36.4244 -77.0761 39° Northeast 454 522 33,000  Level Washington Center
07:19PM 36.5256 -76.9800 37° Northeast 454 522 33,000  Level Washington Center
07:20PM 36.6247 -76.8833 38° Northeast 454 522 33,000  Level Washington Center
07:21PM 36.7258 -76.7839 38° Northeast 454 522 33,000  Level Washington Center
07:22PM 36.8292 -76.6844 38° Northeast 454 522 33,000  Level Washington Center
07:23PM 36.9281 -76.5897 37° Northeast 454 522 33,000  Level Washington Center
07:24PM 37.0269 -76.4869 40° Northeast 454 522 33,000  Level Washington Center
07:25PM 37.1172 -76.3994 38° Northeast 454 522 33,000  Level Washington Center
07:26PM 37.2181 -76.3011 38° Northeast 454 522 33,000  Level Washington Center
07:27PM 37.3164 -76.2028 38° Northeast 454 522 33,000  Level Washington Center
07:28PM 37.4169 -76.1122 36° Northeast 454 522 33,000  Level Washington Center
07:29PM 37.5175 -76.0108 39° Northeast 454 522 33,000  Level Washington Center
07:30PM 37.6200 -75.9117 37° Northeast 454 522 33,000  Level Washington Center
07:31PM 37.7183 -75.8122 39° Northeast 454 522 33,000 -60 Level Washington Center
07:32PM 37.8164 -75.7128 39° Northeast 454 522 32,900  Descending Washington Center
07:33PM 37.9144 -75.6156 38° Northeast 449 517 33,000  Climbing Washington Center
07:34PM 38.0147 -75.5128 39° Northeast 449 517 33,000  Level Washington Center
07:35PM 38.1167 -75.4333 32° Northeast 444 511 33,000  Level Washington Center
07:36PM 38.2250 -75.3644 27° Northeast 428 493 33,000  Level Washington Center
07:37PM 38.3292 -75.2925 28° Northeast 418 481 33,000 -60 Level Washington Center
07:38PM 38.4333 -75.2286 26° Northeast 418 481 32,900  Descending Washington Center
07:39PM 38.5394 -75.1644 25° Northeast 418 481 33,000  Climbing Washington Center
07:40PM 38.6433 -75.0947 28° Northeast 413 475 33,000  Level Washington Center
07:41PM 38.7494 -75.0328 24° Northeast 413 475 33,000  Level Washington Center
07:42PM 38.8533 -74.9653 27° Northeast 413 475 33,000  Level Washington Center
07:43PM 38.9569 -74.8975 27° Northeast 413 475 33,000 -840 Level Washington Center
07:44PM 39.0589 -74.8297 27° Northeast 408 470 31,300 -2,280 Descending Washington Center
07:45PM 39.1603 -74.7431 34° Northeast 413 475 28,500 -2,880 Descending Washington Center
07:46PM 39.2533 -74.6400 41° Northeast 424 488 25,700 -2,880 Descending Washington Center
07:47PM 39.3208 -74.5681 39° Northeast 425 489 23,900 -2,760 Descending New York Center
07:48PM 39.4072 -74.4708 41° Northeast 431 496 21,300 -2,520 Descending New York Center
07:49PM 39.4828 -74.3858 41° Northeast 413 475 18,900 -1,680 Descending New York Center
07:50PM 39.5647 -74.2958 40° Northeast 397 457 18,000 -540 Descending New York Center
07:51PM 39.6575 -74.1981 39° Northeast 391 450 17,900 -1,200 Descending New York Center
07:52PM 39.7372 -74.1075 41° Northeast 383 441 15,700 -2,220 Descending New York Center
07:53PM 39.8167 -74.0194 40° Northeast 383 441 13,500 -2,220 Descending New York Center
07:54PM 39.8914 -73.9581 32° Northeast 362 417 11,400 -1,320 Descending New York Center
07:55PM 39.9764 -73.8942 30° Northeast 327 376 11,000 -240 Descending New York Center
07:56PM 40.0444 -73.8456 29° Northeast 291 335 11,000 -300 Level New York Center
07:57PM 40.1125 -73.7944 30° Northeast 278 320 10,500 -1,080 Descending New York Center
07:58PM 40.1833 -73.7333 33° Northeast 263 303 8,700 -1,620 Descending New York TRACON
07:59PM 40.2500 -73.7000 21° North 255 293 7,100 -900 Descending New York TRACON
08:00PM 40.3167 -73.6667 21° North 259 298 7,000  Descending New York TRACON
08:01PM 40.3833 -73.6167 30° Northeast 260 299 7,100  Climbing New York TRACON
08:02PM 40.4333 -73.5833 27° Northeast 262 302 7,100 -120 Level New York TRACON
08:03PM 40.5000 -73.5333 30° Northeast 261 300 6,900 -960 Descending New York TRACON
08:04PM 40.5500 -73.4833 37° Northeast 257 296 5,300 -1,740 Descending New York TRACON
08:05PM 40.6167 -73.4667 11° North 243 280 3,700 -1,200 Descending New York TRACON
08:06PM 40.6833 -73.4833 349° North 234 269 3,000 -360 Descending New York TRACON
08:07PM 40.7167 -73.5500 303° West 214 246 3,000 -480 Level New York TRACON
08:08PM 40.7500 -73.6000 311° West 215 247 2,100 -1,020 Descending New York TRACON